Location: La Silve
(44.2414°N, 5.8889°E)
Time: 17:33:50
(UTC+00:00)

YAOGAN 6 - Pass Details

Date: 01 December 2020
Orbit: 466 x 502 km, 97.0° (Epoch: 23 January)

Event Time Altitude Azimuth Distance (km) Brightness Sun altitude
Rises 16:45:18 0° 169° (S) 2,565 6.4 -8.3°
Reaches altitude 10° 16:47:22 10° 170° (S) 1,682 5.5 -8.6°
Maximum altitude 16:51:00 81° 258° (WSW) 501 2.7 -9.2°
Drops below altitude 10° 16:54:37 10° 346° (NNW) 1,676 5.2 -9.8°
Sets 16:56:41 0° 348° (NNW) 2,555 6.1 -10.2°
